Mombasa, Kenya

8:38 AM EAT on May 30, 2017 (GMT +0300)
Mombasa

Weather History for HKMO - September, 2013

Change the Weather History Date:

Sunday, September 15, 2013

  Actual Average Record
Temperature  
Mean Temperature 76 °F -  
Max Temperature 83 °F 86 °F 86 °F (2007)
Min Temperature 68 °F 68 °F 66 °F (2016)
Cooling Degree Days 10    
Growing Degree Days 26 (Base 50)    
Moisture  
Dew Point 70 °F    
Average Humidity 79    
Maximum Humidity 94    
Minimum Humidity 28    
Precipitation  
Precipitation 0.00 in 0.11 in - ()
Sea Level Pressure  
Sea Level Pressure 29.99 in    
Wind  
Wind Speed 6 mph ()    
Max Wind Speed 16 mph    
Max Gust Speed -    
Visibility 8.2 miles    
Events      
Averages and records for this station are not official NWS values.
T = Trace of Precipitation, MM = Missing Value Source: Averaged Metar Reports

Daily Weather History Graph

Daily Weather History Graph

Search for Another Location

Airport or City:

Trip Planner

Search our weather history database for the weather conditions in past years. The results will help you decide how hot, cold, wet, or windy it might be!

Date:

Astronomy

Sep. 15, 2013 Rise Set
Actual Time 6:14 AM EAT 6:19 PM EAT
Civil Twilight 5:53 AM EAT 6:39 PM EAT
Nautical Twilight 5:29 AM EAT 7:04 PM EAT
Astronomical Twilight 5:05 AM EAT 7:28 PM EAT
Moon 2:42 PM EAT (9/15) 2:22 AM EAT (9/15)
Length of Visible Light 12h 46m
Length of Day
12h 04m
Waxing Gibbous, 79% of the Moon is Illuminated
Sep 15
Waxing Gibbous
Sep 19
Full
Sep 27
Last Quarter
Oct 5
New
Oct 12
First Quarter

Hourly Weather History & Observations

Time (EAT) Temp. Heat Index Dew Point Humidity Pressure Visibility Wind Dir Wind Speed Gust Speed Precip Events Conditions
12:00 AM 71.6 °F - 69.8 °F 94% 30.01 in 6.2 mi Calm Calm - N/A   Partly Cloudy
2:30 AM 71.6 °F - 69.8 °F 94% 29.95 in 6.2 mi SW 5.8 mph - N/A   Scattered Clouds
3:00 AM 71 °F - 69 °F 93% 29.96 in 16 mi SSW 3.5 mph - -   Partly Cloudy
3:30 AM 71.6 °F - 69.8 °F 94% 29.98 in 6.2 mi SW 3.5 mph - N/A   Scattered Clouds
4:30 AM 71.6 °F - 68.0 °F 88% 29.98 in 6.2 mi Calm Calm - N/A   Partly Cloudy
6:00 AM 71.6 °F - 68.0 °F 88% 30.01 in 6.2 mi WSW 3.5 mph - N/A   Partly Cloudy
7:00 AM 71.6 °F - 69.8 °F 94% 30.01 in 6.2 mi WSW 8.1 mph - N/A   Scattered Clouds
8:00 AM 73.4 °F - 69.8 °F 88% 30.04 in 6.2 mi WSW 9.2 mph - N/A   Partly Cloudy
9:00 AM 77 °F - 71 °F 78% 30.05 in 19 mi South 10.4 mph - -   Partly Cloudy
9:00 AM 77.0 °F - 71.6 °F 83% 30.04 in 6.2 mi South 10.4 mph - N/A   Scattered Clouds
10:00 AM 78.8 °F - 69.8 °F 74% 30.06 in 6.2 mi SSW 9.2 mph - N/A   Scattered Clouds
11:00 AM 82.4 °F 86.3 °F 69.8 °F 66% 30.04 in 6.2 mi SE 11.5 mph - N/A   Scattered Clouds
12:00 PM 82.4 °F 86.3 °F 69.8 °F 66% 30.01 in 6.2 mi ESE 11.5 mph - N/A   Scattered Clouds
1:00 PM 82.4 °F 88.2 °F 73.4 °F 74% 29.98 in 6.2 mi SE 16.1 mph - N/A   Scattered Clouds
3:00 PM 82 °F - 54 °F 28% 29.93 in 19 mi SE 11.5 mph - -   Scattered Clouds
3:00 PM 82.4 °F 86.3 °F 69.8 °F 66% 29.92 in 6.2 mi SE 11.5 mph - N/A   Partly Cloudy
4:00 PM 80.6 °F 84.6 °F 71.6 °F 74% 29.92 in 6.2 mi SSE 11.5 mph - N/A   Scattered Clouds
5:00 PM 80.6 °F 84.6 °F 71.6 °F 74% 29.92 in 6.2 mi SE 12.7 mph - N/A   Mostly Cloudy
6:00 PM 78.8 °F - 71.6 °F 78% 29.92 in 6.2 mi SSE 13.8 mph - N/A   Scattered Clouds
7:00 PM 77.0 °F - 71.6 °F 83% 29.95 in 6.2 mi SSE 11.5 mph - N/A   Partly Cloudy
9:00 PM 77 °F - 72 °F 79% 29.99 in 19 mi ESE 5.8 mph - -   Partly Cloudy
9:00 PM 77.0 °F - 71.6 °F 83% 29.98 in 6.2 mi SE 5.8 mph - N/A   Scattered Clouds
10:00 PM 77.0 °F - 71.6 °F 83% 30.01 in 6.2 mi ESE 12.7 mph - N/A   Scattered Clouds
11:00 PM 77.0 °F - 71.6 °F 83% 30.01 in 6.2 mi SE 11.5 mph - N/A   Partly Cloudy